Location: Bierry-le Bas
(47.5000°N, 3.9667°E)
Time: 08:30:26
(UTC+00:00)

Daily predictions for brighter satellites

Satellite Brightness Start Highest point End
(mag) Time Altitude Azimuth Time Altitude Azimuth Time Altitude Azimuth
CZ-4C R/B 4.1 16:53:02 10° NW 16:57:46 21° N 17:03:06 10° ENE
Cosmos 2227 Rocket 2.6 16:53:08 10° NNW 16:58:32 43° NE 17:03:55 10° SE
Cosmos 1908 3.9 16:55:34 10° SSW 16:59:21 59° W 17:03:12 10° N
Cosmos 2263 Rocket 4.0 16:57:05 10° N 16:59:34 13° NNE 17:02:02 10° ENE
Cosmos 1892 4.0 16:56:39 10° NNE 16:59:36 20° ENE 17:02:32 10° ESE
Cosmos 1110 Rocket 4.0 16:55:12 10° SSW 17:00:27 85° ESE 17:05:41 10° NNE
Cosmos 1939 Rocket 3.8 16:58:37 10° ESE 17:01:53 26° ENE 17:05:08 10° N
Cosmos 1302 Rocket 4.4 16:57:36 10° S 17:02:32 43° ESE 17:07:32 10° NE
USA 307 3.3 17:01:26 10° WNW 17:05:38 48° NNE 17:09:47 10° E
H-2A R/B 2.2 17:01:59 10° N 17:06:09 74° WNW 17:10:14 10° SSW
COSMO-SKYMED 1 3.6 17:04:14 10° NE 17:07:50 25° E 17:11:24 10° SSE
Envisat 3.7 17:03:44 10° S 17:08:45 62° W 17:13:49 10° NNW
Landsat 5 4.2 17:05:33 10° N 17:09:21 54° WNW 17:13:16 10° SSW
Cosmos 1300 2.7 17:06:47 10° S 17:10:32 59° E 17:14:18 10° NNE
USA 308 3.2 17:06:25 10° WNW 17:10:37 50° NNE 17:14:48 10° E
Cosmos 1486 Rocket 4.4 17:06:57 10° NNW 17:12:04 44° ENE 17:17:08 10° SE
Cosmos 1400 Rocket 3.3 17:08:24 10° SSE 17:12:13 39° E 17:16:01 10° NNE
Cosmos 1697 Rocket 3.8 17:09:22 10° SSE 17:13:39 23° ESE 17:17:58 10° NE
CZ-4B R/B 1.5 17:10:32 10° NNE 17:13:40 47° E 17:16:41 10° S
Cosmos 1825 Rocket 3.8 17:09:49 10° NNW 17:14:17 75° W 17:18:40 10° S
Cosmos 1825 3.9 17:13:10 10° NE 17:15:08 14° ENE 17:17:06 10° E
ERS-2 2.1 17:13:52 10° NNE 17:17:30 62° ESE 17:21:06 10° S
Helios 1A Rocket 3.8 17:15:42 10° SE 17:19:13 28° ENE 17:22:45 10° N
BREEZE-M TANK 3.5 17:10:47 10° W 17:21:31 73° S 17:25:00 11° E
YAOGAN 1 3.7 17:18:15 10° ESE 17:21:40 23° ENE 17:25:05 10° NNE
NOAA 11 4.1 17:21:02 10° SSE 17:26:28 78° ENE 17:31:55 10° NNW
Cosmos 1340 2.7 17:22:51 10° N 17:26:36 58° ENE 17:30:19 10° SSE
CZ-2D R/B 3.9 17:23:44 10° SE 17:27:11 33° ENE 17:30:38 10° N
Cosmos 44 3.4 17:22:53 10° SW 17:27:23 71° NW 17:32:14 10° NE
SAR-Lupe-1 4.5 17:24:06 10° NNE 17:27:30 40° E 17:30:51 10° S
Okean O Rocket 2.4 17:24:07 10° S 17:28:24 57° W 17:32:42 10° NNW
Cosmos 2228 3.4 17:24:40 10° SSW 17:28:53 66° WNW 17:33:10 10° N
Cosmos 1726 Rocket 3.6 17:25:21 10° S 17:29:43 87° W 17:34:08 10° N
CZ-4 R/B 2.2 17:26:43 10° SE 17:30:02 28° ENE 17:33:21 10° N
SL-4 R/B 2.2 17:30:37 10° WNW 17:34:03 46° N 17:36:33 18° E
Cosmos 1346 Rocket 3.3 17:30:39 10° N 17:34:22 36° ENE 17:38:04 10° SE
Cosmos 2058 3.4 17:31:24 10° N 17:35:11 35° ENE 17:38:57 10° SE
Aureole 3 2.5 17:32:25 10° S 17:35:26 63° E 17:38:24 10° NNE
Cosmos 1980 Rocket 3.4 17:33:32 10° SE 17:37:22 19° E 17:39:22 16° ENE
Cosmos 2297 Rocket 2.3 17:32:29 10° NNW 17:38:12 86° WSW 17:43:51 10° SSE
In-Cosmos 22 Rocket 4.0 17:34:34 10° N 17:39:58 74° ENE 17:45:26 10° SSE
PSLV R/B 4.3 17:36:05 10° NNE 17:40:03 40° E 17:43:56 10° S
CZ-2C R/B 3.6 17:38:22 10° SE 17:43:46 43° ENE 17:49:00 10° N
Cosmos 1315 Rocket 3.5 17:42:30 10° SSE 17:46:01 31° E 17:49:36 10° NNE
Cosmos 1553 Rocket 4.0 17:43:43 10° S 17:50:00 68° E 17:56:13 10° NNE
Cosmos 220 Rocket 4.2 17:47:26 10° S 17:51:37 48° ESE 17:55:51 10° NNE
Meteor 2-15 4.5 17:47:39 10° S 17:53:39 58° E 17:59:39 10° NNE
BREEZE-M R/B 3.5 17:50:37 10° WNW 17:54:21 74° NNE 17:59:00 21° E
USA 305 2.8 17:51:13 10° WNW 17:55:33 82° NNE 17:58:11 23° ESE
Meteor 2-10 Rocket 3.6 17:50:42 10° S 17:55:49 54° E 18:00:48 10° NNE
SKYMED 2 3.5 17:51:46 10° NNE 17:56:08 75° ESE 18:00:28 10° S
Cosmos 1455 2.5 17:54:18 10° SSE 17:57:51 41° E 18:01:29 10° NNE
NOSS 3-4 (A) 4.2 17:54:51 10° NW 18:01:20 44° NE 18:05:39 23° E
NOSS 3-4 (C) 4.2 17:54:57 10° NW 18:01:26 44° NE 18:05:43 23° E
SeaSat 1 3.4 18:00:38 24° ENE 18:01:55 27° NE 18:06:03 10° N
USA 306 2.8 17:57:44 10° WNW 18:02:03 89° NNE 18:04:25 26° ESE
H-2A R/B 2.5 17:59:06 10° SE 18:04:12 44° ENE 18:09:23 10° N
Okean-O 2.5 18:01:08 10° SSE 18:05:33 75° ENE 18:10:00 10° N
FALCON 9 DEB 3.8 18:03:51 10° W 18:06:57 43° NNW 18:07:57 31° NNE
MOS 1 Rocket 3.8 18:04:11 10° NNE 18:08:36 37° E 18:13:14 10° SSE
FALCON 9 DEB 3.9 18:05:51 10° W 18:08:53 40° NNW 18:09:47 32° NNE
Cosmos 2278 4.2 18:05:28 10° S 18:10:35 36° ESE 18:12:45 27° ENE
NOSS 3-3 (A) 3.9 18:05:35 10° SSW 18:11:19 64° ESE 18:16:10 18° NE
NOSS 3-3 (C) 3.9 18:05:42 10° SSW 18:11:26 63° ESE 18:16:14 18° NE
Aureole 3 Rocket 4.0 18:07:22 10° SSW 18:11:32 60° WNW 18:17:24 10° N
Cosmos 2219 4.3 18:06:09 10° NW 18:11:39 46° WSW 18:17:06 10° S
USA 215 3.9 18:10:10 22° ENE 18:13:49 41° N 18:19:52 10° WNW
ATLAS 5 CENTAUR R/B 4.2 18:12:34 10° NNW 18:14:55 13° N 18:17:26 10° NNE
Cosmos 1745 Rocket 4.0 18:09:19 10° N 18:15:40 86° E 18:22:02 10° S
Lacrosse 5 3.0 18:14:07 10° NW 18:18:37 30° N 18:20:11 25° NE
Cosmos 1408 2.6 18:15:10 10° N 18:18:50 81° W 18:22:30 10° S
Cosmos 44 Rocket 3.5 18:14:22 10° S 18:18:54 45° ESE 18:19:58 39° E
Cosmos 2082 3.7 18:13:18 10° NNW 18:19:04 88° WSW 18:24:48 10° SSE
Meteor 2-3 Rocket 4.5 18:14:26 10° N 18:19:30 31° ENE 18:19:36 31° ENE
GEOS 3 Rocket 3.9 18:17:20 32° E 18:19:33 52° NE 18:24:47 10° NNW
ARGOS 3.4 18:17:21 25° SE 18:20:04 45° ENE 18:25:14 10° N
ATLAS 2AS CENTAUR R/B 3.2 18:16:07 10° NW 18:23:26 47° NE 18:26:16 32° E
FALCON 9 DEB 3.9 18:20:37 10° W 18:23:41 37° NNW 18:24:00 36° N
Cosmos 1656 4.1 18:18:12 10° SW 18:23:42 62° WNW 18:29:20 10° NNE
ERBS 4.2 18:21:30 10° NW 18:23:42 20° N 18:23:42 20° N
Cosmos 968 Rocket 4.3 18:19:13 10° NNW 18:24:16 52° WSW 18:29:16 10° S
Cosmos 1689 Rocket 3.3 18:22:06 10° N 18:24:51 40° WNW 18:27:34 10° SW
Cosmos 1076 Rocket 3.5 18:28:58 10° NNW 18:33:13 79° W 18:37:29 10° S
FALCON 9 DEB 4.2 18:30:17 10° W 18:33:08 34° NNW 18:33:08 34° NNW
FALCON 9 DEB 3.4 18:29:57 10° WNW 18:32:58 60° NNW 18:32:58 60° NNW
Cosmos 2369 3.6 18:29:13 10° SSW 18:34:55 81° ESE 18:39:11 19° NNE
Cosmos 1892 4.4 18:31:50 10° NNW 18:35:23 34° W 18:38:55 10° SSW
SJ 16-02 3.8 18:33:38 10° NNE 18:33:43 10° NNE 18:33:43 10° NNE
Cosmos 1777 Rocket 4.1 18:33:24 10° NNW 18:38:29 49° ENE 18:38:35 49° ENE
CSL-04 Rocket 3.6 18:35:52 10° SSE 18:41:25 86° ENE 18:46:57 10° NNW
Cosmos 2227 Rocket 3.8 18:37:25 10° NW 18:42:28 34° WSW 18:47:31 10° S
COSMO-SKYMED 1 4.1 18:40:05 10° N 18:44:06 37° WNW 18:48:04 10° SW
Cosmos 2263 Rocket 2.4 18:39:29 10° NNW 18:45:00 47° NE 18:45:08 47° ENE
Cosmos 1709 Rocket 3.9 18:38:46 10° N 18:45:12 83° E 18:51:35 10° S
USA 307 3.5 18:41:35 10° WNW 18:45:44 50° SW 18:46:28 44° S
CZ-4C R/B 3.4 18:41:49 10° NW 18:48:12 40° NE 18:49:38 37° ENE
USA 308 3.6 18:46:35 10° WNW 18:50:41 46° SW 18:51:15 43° SSW
Cosmos 1825 2.9 18:47:17 10° NNW 18:50:59 52° W 18:52:23 32° SSW
Cosmos 1697 Rocket 3.1 18:51:35 10° SW 18:57:09 62° WNW 19:01:26 17° NNE
YAOGAN 1 3.8 18:53:27 10° S 18:57:32 41° W 19:01:39 10° NNW
Cosmos 883 Rocket 4.4 18:53:46 10° S 18:59:55 82° W 19:06:05 10° N
Cosmos 1812 Rocket 4.4 19:00:37 10° SSW 19:04:52 48° WNW 19:09:07 10° N
CZ-4 R/B 3.4 19:01:45 10° SSW 19:05:02 26° W 19:08:19 10° NW
Atlas Centaur 2 4.4 19:04:24 10° SW 19:10:36 23° S 19:12:40 21° SSE
Cosmos 2315 Rocket 3.9 19:04:32 10° S 19:10:45 83° W 19:16:59 10° N
SL-4 R/B 3.6 19:10:07 10° WNW 19:12:08 31° WNW 19:12:08 31° WNW
Cosmos 2151 4.2 19:11:27 10° NNW 19:14:07 36° NW 19:14:07 36° NW
Cosmos 1980 Rocket 2.3 19:15:07 10° SSW 19:20:44 73° WNW 19:21:13 69° NNW
Ariane Rocket 4.3 19:33:54 33° NNW 19:33:54 33° NNW 19:36:39 10° NNW
SeaSat 1 3.5 19:40:26 44° WNW 19:40:26 44° WNW 19:44:03 10° NW
H-2A R/B 3.9 19:39:01 10° SSW 19:43:46 30° W 19:48:33 10° NNW
NOSS 3-4 (A) 4.1 19:45:41 10° NW 19:52:35 60° WSW 19:53:08 58° SW
NOSS 3-4 (C) 4.1 19:45:48 10° NW 19:52:41 60° WSW 19:53:11 59° SW
USA 215 3.6 19:57:31 58° NNW 19:57:31 58° NNW 20:02:50 10° NW
ATLAS 5 CENTAUR R/B 4.4 19:57:45 10° NNW 19:59:06 15° N 19:59:06 15° N
Lacrosse 5 3.8 19:57:15 10° NW 19:59:23 25° NW 19:59:23 25° NW
ATLAS 2AS CENTAUR R/B 3.4 20:07:24 10° NW 20:13:44 51° W 20:13:44 51° W
Cosmos 2263 Rocket 4.1 20:23:47 10° NW 20:26:50 25° WNW 20:26:50 25° WNW
CZ-4C R/B 3.7 20:30:10 10° NW 20:34:49 45° NW 20:34:49 45° NW
